{"data":{"norad_id":62280,"intl_designator":"2024-237P","name":"STARLINK-33548","alt_names":[],"object_type":"PAYLOAD","status":"ACTIVE","operator":null,"country":"US","launch_date":"2024-12-08","launch_site_code":"AFETR","launch_vehicle":null,"mission":null,"orbit_class":"UNKNOWN","rcs_meters":null,"size_class":null,"mass_kg":null,"dimensions":null,"purposes":["comms"],"wikipedia_slug":null,"has_3d_model":false,"image_url":null,"decayed_at":null,"tle_current":{"epoch":"2026-09-21T11:55:58.728864Z","epoch_age_seconds":91530,"freshness":"FRESH","line1":"1 62280U 24237P   26264.49720751  .00006626  00000+0  25013-3 0  9994","line2":"2 62280  43.0053 179.6840 0001434 266.3831  93.6857 15.27574831101262","mean_motion":15.27574831,"eccentricity":0.0001434,"inclination_deg":43.0053,"raan_deg":179.684,"arg_perigee_deg":266.3831,"mean_anomaly_deg":93.6857,"bstar":0.00025013,"rev_number":10126,"period_min":94.267067693,"perigee_km":482.08067762313,"apogee_km":484.04847023454,"semimajor_km":6861.2015739288,"source":"CELESTRAK","updated_at":"2026-09-22T09:00:49.568350Z"}}}